When you browse on this site, cookies collect data to enhance your experience and personalize the content and advertising you see.
Visit our Privacy Policy to learn more. By continuing to use the site, you agree to this use of cookies and data.
EN

Hourly Weather Ravda

Today, 25 September, Friday

Time Temperature Precipitation Wind Pressure Humidity
00:00 +19°C° 0 mm 2 mps 758 mmHg 87%
01:00 +19°C° 0 mm 2 mps 757 mmHg 88%
02:00 +19°C° 0 mm 2 mps 757 mmHg 89%
03:00 +20°C° 0.1 mm 1 mps 757 mmHg 90%
04:00 +20°C° 0.1 mm 1 mps 757 mmHg 91%
05:00 +20°C° 0.1 mm 1 mps 757 mmHg 91%
06:00 +21°C° 0.1 mm 1 mps 757 mmHg 86%
07:00 +22°C° 0.1 mm 1 mps 757 mmHg 81%
08:00 +24°C° 0 mm 1 mps 757 mmHg 76%
09:00 +25°C° 0 mm 2 mps 757 mmHg 68%
10:00 +27°C° 0 mm 3 mps 757 mmHg 60%
11:00 +29°C° 0 mm 4 mps 757 mmHg 52%
12:00 +29°C° 0 mm 5 mps 756 mmHg 51%
13:00 +29°C° 0 mm 5 mps 756 mmHg 50%
14:00 +29°C° 0 mm 5 mps 755 mmHg 48%
15:00 +28°C° 0 mm 6 mps 755 mmHg 54%
16:00 +27°C° 0 mm 6 mps 754 mmHg 60%
17:00 +26°C° 0 mm 6 mps 754 mmHg 65%
18:00 +25°C° 0 mm 5 mps 754 mmHg 72%
19:00 +23°C° 0 mm 5 mps 754 mmHg 79%
20:00 +21°C° 0 mm 5 mps 754 mmHg 86%
21:00 +21°C° 0.1 mm 4 mps 754 mmHg 86%
22:00 +21°C° 0.1 mm 4 mps 754 mmHg 85%
23:00 +21°C° 0.1 mm 4 mps 753 mmHg 85%

Tomorrow, 26 September, Saturday

Time Temperature Precipitation Wind Pressure Humidity
00:00 +21°C° 0 mm 4 mps 753 mmHg 84%
01:00 +20°C° 0 mm 3 mps 752 mmHg 82%
02:00 +20°C° 0 mm 3 mps 752 mmHg 81%
03:00 +20°C° 0 mm 3 mps 752 mmHg 80%
04:00 +20°C° 0 mm 3 mps 751 mmHg 80%
05:00 +19°C° 0 mm 3 mps 751 mmHg 80%
06:00 +21°C° 0 mm 4 mps 751 mmHg 72%
07:00 +23°C° 0 mm 4 mps 750 mmHg 63%
08:00 +26°C° 0 mm 5 mps 750 mmHg 55%
09:00 +28°C° 0 mm 6 mps 750 mmHg 48%
10:00 +30°C° 0 mm 7 mps 750 mmHg 41%
11:00 +33°C° 0 mm 8 mps 750 mmHg 35%
12:00 +33°C° 0 mm 8 mps 749 mmHg 35%
13:00 +33°C° 0 mm 8 mps 749 mmHg 34%
14:00 +33°C° 0 mm 7 mps 749 mmHg 34%
15:00 +33°C° 0 mm 7 mps 748 mmHg 35%
16:00 +32°C° 0 mm 6 mps 748 mmHg 37%
17:00 +30°C° 0 mm 6 mps 747 mmHg 38%
18:00 +29°C° 0.3 mm 6 mps 747 mmHg 48%
19:00 +27°C° 0.3 mm 6 mps 747 mmHg 59%
20:00 +24°C° 0.3 mm 6 mps 747 mmHg 70%
21:00 +24°C° 0.5 mm 6 mps 748 mmHg 71%
22:00 +23°C° 0.5 mm 6 mps 749 mmHg 72%
23:00 +23°C° 0.5 mm 6 mps 749 mmHg 74%

Day after tomorrow, 27 September, Sunday

Time Temperature Precipitation Wind Pressure Humidity
00:00 +21°C° 0 mm 5 mps 750 mmHg 76%
01:00 +20°C° 0 mm 5 mps 750 mmHg 77%
02:00 +18°C° 0 mm 4 mps 751 mmHg 79%
03:00 +18°C° 0 mm 3 mps 751 mmHg 78%
04:00 +17°C° 0 mm 3 mps 752 mmHg 77%
05:00 +17°C° 0 mm 2 mps 753 mmHg 76%
06:00 +18°C° 0 mm 2 mps 753 mmHg 71%
07:00 +19°C° 0 mm 2 mps 754 mmHg 66%
08:00 +21°C° 0 mm 1 mps 755 mmHg 60%
09:00 +23°C° 0 mm 2 mps 755 mmHg 52%
10:00 +25°C° 0 mm 2 mps 756 mmHg 43%
11:00 +26°C° 0 mm 3 mps 756 mmHg 34%
12:00 +27°C° 0 mm 3 mps 756 mmHg 30%
13:00 +29°C° 0 mm 3 mps 756 mmHg 26%
14:00 +30°C° 0 mm 4 mps 756 mmHg 21%
15:00 +29°C° 0 mm 4 mps 757 mmHg 26%
16:00 +28°C° 0 mm 4 mps 757 mmHg 31%
17:00 +27°C° 0 mm 4 mps 757 mmHg 36%
18:00 +25°C° 0 mm 3 mps 758 mmHg 46%
19:00 +23°C° 0 mm 2 mps 758 mmHg 56%
20:00 +20°C° 0 mm 2 mps 759 mmHg 66%
21:00 +20°C° 0 mm 2 mps 759 mmHg 67%
22:00 +20°C° 0 mm 2 mps 759 mmHg 68%
23:00 +19°C° 0 mm 2 mps 760 mmHg 69%

28 September, Monday

Time Temperature Precipitation Wind Pressure Humidity
00:00 +19°C° 0 mm 2 mps 760 mmHg 69%
01:00 +18°C° 0 mm 2 mps 760 mmHg 69%
02:00 +18°C° 0 mm 2 mps 759 mmHg 69%
03:00 +17°C° 0 mm 2 mps 759 mmHg 72%
04:00 +17°C° 0 mm 2 mps 759 mmHg 74%
05:00 +17°C° 0 mm 2 mps 759 mmHg 77%
06:00 +18°C° 0 mm 3 mps 759 mmHg 73%
07:00 +20°C° 0 mm 3 mps 759 mmHg 69%
08:00 +21°C° 0 mm 4 mps 760 mmHg 66%
09:00 +23°C° 0 mm 4 mps 759 mmHg 58%
10:00 +26°C° 0 mm 5 mps 759 mmHg 50%
11:00 +28°C° 0 mm 5 mps 759 mmHg 43%
12:00 +29°C° 0 mm 5 mps 759 mmHg 42%
13:00 +29°C° 0 mm 5 mps 759 mmHg 42%
14:00 +30°C° 0 mm 6 mps 759 mmHg 41%
15:00 +29°C° 0 mm 6 mps 758 mmHg 44%
16:00 +29°C° 0 mm 6 mps 758 mmHg 47%
17:00 +28°C° 0 mm 6 mps 757 mmHg 49%
18:00 +27°C° 0 mm 5 mps 758 mmHg 53%
19:00 +26°C° 0 mm 5 mps 758 mmHg 58%
20:00 +23°C° 0 mm 5 mps 758 mmHg 62%
21:00 +23°C° 0 mm 4 mps 758 mmHg 64%
22:00 +22°C° 0 mm 4 mps 757 mmHg 67%
23:00 +22°C° 0 mm 4 mps 757 mmHg 69%

29 September, Tuesday

Time Temperature Precipitation Wind Pressure Humidity
00:00 +21°C° 0 mm 4 mps 757 mmHg 73%
01:00 +21°C° 0 mm 4 mps 757 mmHg 76%
02:00 +20°C° 0 mm 5 mps 757 mmHg 79%
03:00 +20°C° 0 mm 5 mps 757 mmHg 82%
04:00 +19°C° 0 mm 5 mps 756 mmHg 85%
05:00 +19°C° 0 mm 5 mps 756 mmHg 88%
06:00 +20°C° 0.1 mm 4 mps 756 mmHg 82%
07:00 +21°C° 0.1 mm 4 mps 756 mmHg 75%
08:00 +22°C° 0.1 mm 4 mps 756 mmHg 69%
09:00 +23°C° 0.1 mm 5 mps 756 mmHg 63%
10:00 +23°C° 0.1 mm 6 mps 756 mmHg 57%
11:00 +24°C° 0.1 mm 7 mps 756 mmHg 51%
12:00 +24°C° 0 mm 7 mps 756 mmHg 48%
13:00 +24°C° 0 mm 7 mps 756 mmHg 45%
14:00 +24°C° 0 mm 7 mps 756 mmHg 41%
15:00 +23°C° 0 mm 7 mps 756 mmHg 40%
16:00 +23°C° 0 mm 6 mps 756 mmHg 38%
17:00 +23°C° 0 mm 6 mps 756 mmHg 37%
18:00 +21°C° 0 mm 6 mps 757 mmHg 40%
19:00 +20°C° 0 mm 5 mps 757 mmHg 44%
20:00 +17°C° 0 mm 5 mps 757 mmHg 48%
21:00 +17°C° 0 mm 5 mps 757 mmHg 49%
22:00 +16°C° 0 mm 5 mps 757 mmHg 51%
23:00 +15°C° 0 mm 5 mps 757 mmHg 52%

30 September, Wednesday

Time Temperature Precipitation Wind Pressure Humidity
00:00 +15°C° 0 mm 5 mps 757 mmHg 54%
01:00 +14°C° 0 mm 5 mps 757 mmHg 55%
02:00 +14°C° 0 mm 5 mps 757 mmHg 57%
03:00 +14°C° 0 mm 5 mps 757 mmHg 57%
04:00 +14°C° 0 mm 5 mps 756 mmHg 58%
05:00 +14°C° 0 mm 5 mps 756 mmHg 59%
06:00 +15°C° 0 mm 6 mps 756 mmHg 58%
07:00 +16°C° 0 mm 7 mps 756 mmHg 56%
08:00 +17°C° 0 mm 8 mps 756 mmHg 55%
09:00 +20°C° 0 mm 8 mps 756 mmHg 50%
10:00 +21°C° 0 mm 9 mps 756 mmHg 44%
11:00 +23°C° 0 mm 9 mps 755 mmHg 39%
12:00 +23°C° 0 mm 8 mps 755 mmHg 37%
13:00 +24°C° 0 mm 7 mps 755 mmHg 35%
14:00 +24°C° 0 mm 7 mps 754 mmHg 33%
15:00 +24°C° 0 mm 6 mps 754 mmHg 34%
16:00 +23°C° 0 mm 6 mps 754 mmHg 36%
17:00 +23°C° 0 mm 5 mps 754 mmHg 37%
18:00 +21°C° 0 mm 5 mps 754 mmHg 42%
19:00 +19°C° 0 mm 5 mps 754 mmHg 48%
20:00 +16°C° 0 mm 5 mps 755 mmHg 53%
21:00 +16°C° 0 mm 5 mps 755 mmHg 55%
22:00 +16°C° 0 mm 5 mps 755 mmHg 56%
23:00 +15°C° 0 mm 5 mps 755 mmHg 58%
Show more